Home > Weather > Abu Dhabi > Past weeks

Flag for United Arab Emirates Weather for the Past 2 Weeks in Abu Dhabi, Abu Dhabi, United Arab Emirates

Now
64 °F

Passing clouds.


Feels Like: 64 °F
Forecast: 59 / 75 °F
Wind: 5 mph from North

Location: Abu Dhabi Bateen Airport

Current Time: Feb 7, 2016 at 1:12:13 AM

Latest Report: Feb 7, 2016 at 12:00 AM


Visibility: N/A

Pressure: 30.04 "Hg

Humidity: 78%

Dew point: 57 °F

Location of Abu DhabiLocation

Historic Weather in Abu Dhabi — Graph

°F

Abu Dhabi Temperature Yesterday

Maximum temperature yesterday: 75 °F (at 2:00 PM)
Minimum temperature yesterday: 59 °F (at 6:00 AM)
Average temperature yesterday: 67 °F

High & Low Weather Summary for the Past Weeks

 TemperatureHumidityPressure
High84 °F (Jan 25, 2:00 PM)100% (Jan 23, 6:00 AM)30.27 "Hg (Jan 23, 6:00 AM)
Low55 °F (Feb 2, 5:00 AM)20% (Jan 24, 3:00 PM)29.92 "Hg (Jan 25, 3:00 PM)
Average67 °F61%30.10 "Hg
* Reported Midnight between Jan 22 and Jan 23 — Midnight between Feb 6 and Feb 7, Abu Dhabi, Weather by CustomWeather, © 2016

Note: Actual official high and low records may vary slightly from our data, if they occured in-between our weather recording intervals... More about our weather records

Advertising

Abu Dhabi Weather History for the Previous 24 Hours

 ConditionsComfort  
Time TempWeatherWind HumidityBarometerVisibility
12:00 AM
Sun, Feb 7
64 °FPassing clouds.5 mph78%30.04 "HgN/A
11:00 PM
Sat, Feb 6
66 °FPassing clouds.5 mph73%30.04 "HgN/A
10:00 PM66 °FClear.6 mph73%30.07 "Hg10 mi
9:00 PM66 °FPassing clouds.6 mph73%30.07 "HgN/A
8:00 PM68 °FClear.7 mph69%30.04 "Hg10 mi
7:00 PM68 °FClear.10 mph64%30.04 "Hg10 mi
6:00 PM70 °FSunny.12 mph60%30.04 "Hg10 mi
5:00 PM73 °FPassing clouds.10 mph50%30.04 "HgN/A
4:00 PM73 °FPassing clouds.12 mph41%30.04 "HgN/A
3:00 PM73 °FSunny.12 mph41%30.04 "Hg10 mi
2:00 PM75 °FPassing clouds.9 mph27%30.07 "HgN/A
1:00 PM73 °FPassing clouds.8 mph44%30.09 "HgN/A
12:00 PM72 °FPassing clouds.6 mph50%30.12 "HgN/A
11:00 AM70 °FPassing clouds.7 mph57%30.15 "HgN/A
10:00 AM70 °FSunny.2 mph57%30.15 "Hg10 mi
9:00 AM64 °FClear.3 mph73%30.15 "Hg5 mi
8:00 AM59 °FClear.2 mph88%30.12 "Hg5 mi
7:00 AM59 °FClear.No wind88%30.12 "Hg5 mi
6:00 AM59 °FClear.No wind82%30.09 "Hg5 mi
5:00 AM61 °FClear.3 mph83%30.09 "Hg10 mi
4:00 AM61 °FClear.N/A88%30.09 "Hg10 mi
3:00 AM63 °FClear.2 mph83%30.09 "Hg10 mi
2:00 AM63 °FClear.3 mph88%30.12 "Hg10 mi
1:00 AM66 °FClear.5 mph73%30.12 "Hg10 mi
Weather by CustomWeather, © 2016

See weather overviewHow to use our weather pages